FW6369 Weather Reports


Display with metric or nautical units.
time (UTC)temp
F
wind
direction
speed
MPH
gust
MPH
rain 1hr
in
rain 24hr
in
rain mn
in
humidity
%
barometer
mb
20260504081552 50 0 0.0 1.0 0.00 0.00 0.00 92 1014.5
20260504080110 51 129 0.0 2.0 0.00 0.00 0.00 92 1014.5
20260504044551 55 121 1.0 3.0 0.00 0.00 0.00 84 1014.2
20260504043045 55 0 1.0 3.0 0.00 0.00 0.00 84 1014.1
20260504041550 55 209 0.0 3.0 0.00 0.00 0.00 83 1013.8
20260504040114 56 0 0.0 2.0 0.00 0.00 0.00 84 1013.8
20260504034549 56 200 0.0 2.0 0.00 0.00 0.00 83 1013.6
20260504033045 56 200 2.0 6.0 0.00 0.00 0.00 82 1013.5
20260504031553 57 175 0.0 3.0 0.00 0.00 0.00 82 1013.3
20260504030051 57 133 1.0 3.0 0.00 0.00 0.00 81 1013.2
20260504024549 58 211 1.0 5.0 0.00 0.00 0.00 79 1013.1
20260504023057 58 15 0.0 5.0 0.00 0.00 0.00 77 1012.9
20260504021551 60 9 0.0 2.0 0.00 0.00 0.00 75 1012.8
20260504020050 60 296 2.0 7.0 0.00 0.00 0.00 73 1012.8
20260504014600 62 199 1.0 6.0 0.00 0.00 0.00 71 1012.8
20260504013100 62 234 1.0 5.0 0.00 0.00 0.00 71 1012.9
20260504011552 61 96 1.0 5.0 0.00 0.00 0.00 71 1012.8
20260504010056 61 42 2.0 6.0 0.00 0.00 0.00 73 1012.9
20260504004608 61 226 2.0 7.0 0.00 0.00 0.00 71 1012.9
20260504003058 62 200 3.0 8.0 0.00 0.00 0.00 70 1012.9
20260504001605 63 232 1.0 6.0 0.00 0.00 0.00 69 1012.8
20260504000115 64 223 1.0 10.0 0.00 0.00 0.00 67 1012.9
20260503234544 64 257 2.0 8.0 0.00 0.00 0.00 63 1012.8
20260503233050 64 41 1.0 6.0 0.00 0.00 0.00 63 1012.7
20260503231554 64 0 1.0 6.0 0.00 0.00 0.00 62 1012.6
20260503230057 64 144 1.0 6.0 0.00 0.00 0.00 63 1012.4
20260503224553 65 165 1.0 5.0 0.00 0.00 0.00 63 1012.4
20260503223051 65 66 1.0 7.0 0.00 0.00 0.00 64 1012.4
20260503221556 65 0 1.0 4.0 0.00 0.00 0.00 65 1012.4
20260503220055 65 80 1.0 6.0 0.00 0.00 0.00 66 1012.5
20260503214548 63 0 0.0 4.0 0.00 0.00 0.00 66 1012.7
20260503213048 64 295 1.0 5.0 0.00 0.00 0.00 64 1012.6
20260503211552 63 200 1.0 4.0 0.00 0.00 0.00 65 1012.5
20260503210048 63 146 1.0 5.0 0.00 0.00 0.00 68 1012.6
20260503204550 62 355 1.0 6.0 0.00 0.00 0.00 69 1012.8
20260503203049 62 18 0.0 2.0 0.00 0.00 0.00 70 1012.8
20260503201548 61 23 0.0 4.0 0.00 0.00 0.00 71 1012.7
20260503200056 60 0 1.0 4.0 0.00 0.00 0.00 73 1012.9
20260503194556 60 9 1.0 4.0 0.00 0.00 0.00 71 1013.0
20260503193054 60 0 1.0 4.0 0.00 0.00 0.00 72 1013.0
20260503191604 58 162 0.0 4.0 0.00 0.00 0.00 75 1013.1
20260503190050 58 131 2.0 6.0 0.00 0.00 0.00 75 1013.1
20260503184551 57 224 0.0 4.0 0.00 0.00 0.00 76 1013.1
20260503183129 57 180 0.0 5.0 0.00 0.00 0.00 76 1013.2
20260503181617 58 323 1.0 3.0 0.00 0.00 0.00 76 1013.2
20260503180049 58 290 1.0 4.0 0.00 0.00 0.00 75 1013.1
20260503174550 58 98 1.0 7.0 0.00 0.00 0.00 76 1013.0
20260503173055 57 5 1.0 6.0 0.00 0.00 0.00 78 1012.9
20260503171553 57 187 1.0 4.0 0.00 0.00 0.00 79 1012.8